Date String (YYYY-MM-DD hh:mm:ss) UTC,Instrument flags,Ambient pressure (hPa),Sample flow (lpm),Bypass flow (lpm),Sample temperature (°C),Ambient temperature (°C),ASC tube jacket temperature (°C),LED temperature (°C),Box temperature (°C),Sample RH (%),Span deviation,Mass concentration (μg/m³),Mass concentration (μg/m³),Mass concentration (μg/m³)
DateTimeUTC,F1_M11,P_M11,Q1_M11,Q2_M11,T1_M11,T2_M11,T3_M11,T4_M11,T5_M11,U1_M11,ZSPAN_M11,X0_M11,X2_M11,X1_M11
2022-01-15 07:00:00,,0836.3,5.01,0.00,21.5,21.5,00.0,30.7,23.1,11.1,0000.0,0007.94,0003.66,0003.43
2022-01-15 07:01:00,,0836.3,5.00,0.00,21.6,22.3,00.0,30.7,23.5,11.0,0000.0,0007.93,0003.65,0003.43
2022-01-15 07:02:00,,0836.3,5.01,0.00,21.8,22.8,00.0,30.8,23.7,10.9,0000.0,0007.90,0003.64,0003.41
2022-01-15 07:03:00,,0836.2,5.00,0.00,21.8,22.5,00.0,30.8,23.7,10.9,0000.0,0007.53,0003.63,0003.39
2022-01-15 07:04:00,,0836.3,4.99,0.00,21.8,22.0,00.0,30.8,23.4,10.9,0000.0,0006.39,0003.61,0003.36
2022-01-15 07:05:00,,0836.2,5.02,0.00,21.6,21.5,00.0,30.8,23.1,10.9,0000.0,0005.44,0003.58,0003.33
2022-01-15 07:06:00,,0836.2,4.99,0.00,21.5,21.2,00.0,30.7,22.9,11.0,0000.0,0005.40,0003.55,0003.30
2022-01-15 07:07:00,,0836.2,4.99,0.00,21.4,20.9,00.0,30.7,22.8,11.1,0000.0,0005.25,0003.50,0003.26
2022-01-15 07:08:00,,0836.2,4.99,0.00,21.3,20.6,00.0,30.6,22.6,11.1,0000.0,0005.12,0003.45,0003.22
2022-01-15 07:09:00,,0836.2,5.01,0.00,21.2,20.4,00.0,30.6,22.5,11.1,0000.0,0005.02,0003.42,0003.20
2022-01-15 07:10:00,,0836.2,5.00,0.00,21.2,20.8,00.0,30.6,22.6,11.2,0000.0,0005.05,0003.39,0003.15
2022-01-15 07:11:00,,0836.3,4.99,0.00,21.3,21.7,00.0,30.6,23.0,11.1,0000.0,0005.24,0003.36,0003.11
2022-01-15 07:12:00,,0836.3,5.00,0.00,21.5,22.6,00.0,30.6,23.4,10.9,0000.0,0005.35,0003.34,0003.05
2022-01-15 07:13:00,,0836.2,4.99,0.00,21.7,22.9,00.0,30.6,23.6,10.8,0000.0,0005.22,0003.29,0003.00
2022-01-15 07:14:00,,0836.2,4.99,0.00,21.7,22.3,00.0,30.7,23.5,10.8,0000.0,0005.02,0003.23,0002.93
2022-01-15 07:15:00,,0836.2,5.01,0.00,21.6,21.9,00.0,30.6,23.3,10.8,0000.0,0004.87,0003.20,0002.88
2022-01-15 07:16:00,,0836.2,5.00,0.00,21.5,21.4,00.0,30.6,23.1,10.9,0000.0,0004.66,0003.17,0002.84
2022-01-15 07:17:00,,0836.2,4.99,0.00,21.4,21.1,00.0,30.6,22.9,10.9,0000.0,0004.56,0003.14,0002.80
2022-01-15 07:18:00,,0836.2,5.00,0.00,21.4,20.9,00.0,30.6,22.8,11.0,0000.0,0004.50,0003.12,0002.76
2022-01-15 07:19:00,,0836.2,5.00,0.00,21.3,20.7,00.0,30.5,22.7,11.0,0000.0,0004.45,0003.11,0002.77
2022-01-15 07:20:00,,0836.2,5.00,0.00,21.2,20.5,00.0,30.5,22.6,11.1,0000.0,0004.37,0003.08,0002.75
2022-01-15 07:21:00,,0836.2,5.00,0.00,21.2,20.7,00.0,30.5,22.6,11.1,0000.0,0004.20,0003.04,0002.73
2022-01-15 07:22:00,,0836.2,5.01,0.00,21.3,21.7,00.0,30.5,23.0,11.0,0000.0,0003.91,0003.01,0002.71
2022-01-15 07:23:00,,0836.2,5.01,0.00,21.5,22.5,00.0,30.5,23.3,10.9,0000.0,0003.77,0002.95,0002.70
2022-01-15 07:24:00,,0836.2,4.98,0.00,21.6,22.5,00.0,30.6,23.4,10.9,0000.0,0004.20,0002.95,0002.68
2022-01-15 07:25:00,,0836.2,4.99,0.00,21.5,22.0,00.0,30.6,23.2,10.9,0000.0,0004.22,0002.94,0002.66
2022-01-15 07:26:00,,0836.2,5.00,0.00,21.5,21.6,00.0,30.5,23.0,10.9,0000.0,0004.19,0002.92,0002.64
2022-01-15 07:27:00,,0836.1,5.00,0.00,21.4,21.2,00.0,30.5,22.9,10.9,0000.0,0004.07,0002.87,0002.62
2022-01-15 07:28:00,,0836.1,5.01,0.00,21.3,20.9,00.0,30.5,22.7,11.0,0000.0,0004.18,0002.87,0002.60
2022-01-15 07:29:00,,0836.2,5.00,0.00,21.2,20.7,00.0,30.4,22.6,11.1,0000.0,0004.33,0002.86,0002.59
2022-01-15 07:30:00,,0836.2,5.01,0.00,21.1,20.5,00.0,30.4,22.5,11.1,0000.0,0004.29,0002.82,0002.56
2022-01-15 07:31:00,,0836.2,4.99,0.00,21.1,20.4,00.0,30.4,22.5,11.2,0000.0,0004.62,0002.79,0002.55
2022-01-15 07:32:00,,0836.2,5.00,0.00,21.1,21.0,00.0,30.4,22.7,11.2,0000.0,0004.61,0002.80,0002.55
2022-01-15 07:33:00,,0836.2,5.00,0.00,21.3,22.0,00.0,30.4,23.1,11.1,0000.0,0004.79,0002.79,0002.54
2022-01-15 07:34:00,,0836.2,4.99,0.00,21.5,22.7,00.0,30.4,23.4,10.9,0000.0,0004.70,0002.78,0002.53
2022-01-15 07:35:00,,0836.1,5.01,0.00,21.6,22.5,00.0,30.5,23.5,10.9,0000.0,0004.34,0002.77,0002.53
2022-01-15 07:36:00,,0836.2,5.00,0.00,21.6,22.2,00.0,30.5,23.4,10.8,0000.0,0004.31,0002.76,0002.52
2022-01-15 07:37:00,,0836.2,4.99,0.00,21.5,21.8,00.0,30.5,23.2,10.9,0000.0,0004.38,0002.79,0002.54
2022-01-15 07:38:00,,0836.2,5.00,0.00,21.5,21.4,00.0,30.5,23.1,10.9,0000.0,0004.40,0002.81,0002.55
2022-01-15 07:39:00,,0836.1,5.00,0.00,21.4,21.2,00.0,30.5,23.0,10.9,0000.0,0004.33,0002.81,0002.56
2022-01-15 07:40:00,,0836.2,5.00,0.00,21.4,21.0,00.0,30.5,22.9,11.0,0000.0,0004.06,0002.78,0002.56
2022-01-15 07:41:00,,0836.2,5.00,0.00,21.3,20.8,00.0,30.4,22.8,11.0,0000.0,0003.97,0002.75,0002.54
2022-01-15 07:42:00,,0836.2,5.00,0.00,21.2,20.6,00.0,30.4,22.7,11.0,0000.0,0003.61,0002.73,0002.53
2022-01-15 07:43:00,,0836.1,5.00,0.00,21.1,20.4,00.0,30.4,22.5,11.1,0000.0,0003.57,0002.73,0002.53
2022-01-15 07:44:00,,0836.1,5.00,0.00,21.1,20.6,00.0,30.4,22.6,11.1,0000.0,0003.68,0002.73,0002.53
2022-01-15 07:45:00,,0836.2,4.99,0.00,21.3,21.5,00.0,30.4,22.9,11.1,0000.0,0003.64,0002.76,0002.56
2022-01-15 07:46:00,,0836.1,5.00,0.00,21.4,22.2,00.0,30.4,23.3,11.0,0000.0,0003.65,0002.80,0002.62
2022-01-15 07:47:00,,0836.2,5.01,0.00,21.6,22.9,00.0,30.5,23.5,10.9,0000.0,0003.70,0002.87,0002.69
2022-01-15 07:48:00,,0836.1,4.99,0.00,21.7,22.7,00.0,30.5,23.5,10.8,0000.0,0004.34,0002.92,0002.74
2022-01-15 07:49:00,,0836.1,4.99,0.00,21.6,22.2,00.0,30.5,23.2,10.8,0000.0,0004.59,0002.99,0002.77
2022-01-15 07:50:00,,0836.1,5.00,0.00,21.5,21.7,00.0,30.5,23.0,10.9,0000.0,0004.64,0003.03,0002.81
2022-01-15 07:51:00,,0836.0,5.00,0.00,21.3,21.3,00.0,30.5,22.7,11.0,0000.0,0004.70,0003.07,0002.85
2022-01-15 07:52:00,,0836.0,5.00,0.00,21.2,20.9,00.0,30.4,22.6,11.1,0000.0,0004.81,0003.12,0002.88
2022-01-15 07:53:00,,0836.0,5.00,0.00,21.1,20.6,00.0,30.4,22.4,11.2,0000.0,0004.94,0003.16,0002.93
2022-01-15 07:54:00,,0835.9,5.01,0.00,21.0,20.4,00.0,30.3,22.3,11.2,0000.0,0005.07,0003.21,0002.98
2022-01-15 07:55:00,,0835.9,5.00,0.00,20.9,20.2,00.0,30.3,22.2,11.3,0000.0,0004.90,0003.23,0003.01
2022-01-15 07:56:00,,0836.0,5.00,0.00,20.9,20.7,00.0,30.3,22.4,11.3,0000.0,0004.79,0003.23,0003.01
2022-01-15 07:57:00,,0836.0,5.01,0.00,21.1,21.7,00.0,30.3,22.8,11.2,0000.0,0005.38,0003.22,0002.96
2022-01-15 07:58:00,,0835.9,4.99,0.00,21.3,22.4,00.0,30.3,23.2,11.1,0000.0,0006.02,0003.19,0002.92
2022-01-15 07:59:00,,0835.9,5.00,0.00,21.4,22.2,00.0,30.4,23.2,11.0,0000.0,0005.62,0003.16,0002.89
